Showing default

BADR B, 27003

Orbit data source: Space-Track

BADR B, 27003 is a payload satellite owned by SUPARCO (PK) in SSO that was launched on Mon, 10 Dec 2001 UTC via a ZENIT-2 launch vehicle from the Tyuratam Missile And Space Complex (TTMTR). Payloads include a variety of satellites, spacecraft, and rockets equipped with specific instruments for various scientific and technological missions. These include communications satellites like Starlink; space stations such as the ISS; scientific satellites like the Hubble; Earth observation satellites from companies like Planet Labs, Umbra, and HawkEye 360; GPS; miniature CubeSats for education and research; and military/defense satellites.

Loading next visibility...
BADR B details
Identifier
27003, 2001-056C
Orbit
SSO
Last TLE update10 hours ago
Origin
Flag of PKSUPARCO (PK / PAKI)
ManufacturerSIL
MissionNon-operational Civil Imaging
Bus & MotorMICROSIL, Unknown motor
Mass69 kg wet, 69 kg dry
Launch date (UTC)
2001-12-10 (23 years ago)
Launch vehicle
ZENIT-2
Launch site
Tyuratam Missile And Space Complex (TTMTR)
Object type
Payload
Rocket body
Debris
Shape & HBRBox + 1 Arm, 6.5 m
Radar Cross Section0.375 m², Medium (>0.1 m² and < 1m²)

Expand to show TLE details & history

TLE from 10 hours ago
0 BADR B
1 27003U 01056C   24361.26285265  .00000032  00000-0  88673-4 0  9997
2 27003  99.7476 157.1257 0020976  76.2530 284.0948 13.70363665152262
Epoch: 2024-12-26T06:18Z
Definitive object data (Epoch: 2024-12-26T06:18:30.468Z)
Latitude-0.00011°
Longitude-32.74599°
Altitude997.339 km
Speed7.355 km/s
True Right ascension10h 28m 30s
True Declination0° 00' 00"
Sunlit
Object was in daylight at TLE epoch
Visualization TLE readout
Latitude-69.26826°
Longitude-5.47563°
Altitude1,037.069 km
Speed7.326 km/s
Apparent Right ascension06h 00m 07s
Apparent Declination-70° 16' 58"
Sunlit
Object is in daylight
Visualization observer readout
Local Sidereal Time15:50:34
Azimuth198.528° SSW
Elevation-55.342°
Doppler factor1
Orbital elements
Apogee altitude1,011.009 km
Perigee altitude980.075 km
Semi-major axis7,373.679 km
Eccentricity0.0020976
Inclination99.7476°
RAAN157.1257°
Arg. of periapsis76.253°
True anomaly283.86152°
Mean anomaly284.0948°
Eccentric anomaly283.97818°
Mean motion3.42781 °/min
BSTAR0.000088673
Orbital period105.02 mins
Loading maneuver chart data...
Loading historical data...
Loading historical data...
Loading historical data...
Loading historical data...
Loading historical data...
Loading historical data...
Loading historical data...

BADR B Visibility forecast

Observer location: undefined°, undefined

Span
Click to sort rows by Start time (UTC) header in descending order
Start Az.
Max El. time (UTC)
Max El. Az.
Max El.
End time (UTC)
End Az.
9 mins2024-12-26 22:41:23.730Z39.679° NE2024-12-26 22:46:23.730Z106.736° ESE28.299°2024-12-26 22:50:23.730Z154.7° SSE
9 mins2024-12-27 00:25:23.730Z351.835° N2024-12-27 00:29:23.730Z295.962° NW31.813°2024-12-27 00:34:23.730Z231.085° WSW
4 mins2024-12-27 08:48:23.730Z71.218° E2024-12-27 08:49:23.730Z60.691° ENE13.65°2024-12-27 08:52:23.730Z29.997° NE
11 mins2024-12-27 10:27:23.730Z161.52° S2024-12-27 10:32:23.730Z116.936° SE44.89°2024-12-27 10:38:23.730Z346.148° N
4 mins2024-12-27 12:15:23.730Z255.265° W2024-12-27 12:16:23.730Z265.478° W12.667°2024-12-27 12:19:23.730Z295.443° NW
|